This is the latest recevied weather packets stored in our database for station/object N9CQL. If no packets are shown the sender has not sent any weather packets the latest 1 day(s).
| Time | Temp. | Humidity | Pressure | Rain* | Wind** | Luminosity | Snow |
|---|---|---|---|---|---|---|---|
| 1777992320 | 10° C | 76% | 1007.7 hPa | 0 mm | 0 m/s | 232 W/m² | - |
| 1777992016 | 10° C | 84% | 1007.2 hPa | 0 mm | 0 m/s | 186 W/m² | - |
| 1777991714 | 9.44° C | 87% | 1007.1 hPa | 0 mm | 0 m/s | 240 W/m² | - |
| 1777991411 | 10° C | 87% | 1007.6 hPa | 0 mm | 0 m/s | 107 W/m² | - |
| 1777991108 | 9.44° C | 88% | 1007.6 hPa | 0 mm | 0 m/s | 139 W/m² | - |
| 1777990805 | 9.44° C | 89% | 1007.7 hPa | 0 mm | 0 m/s | 144 W/m² | - |
| 1777990503 | 9.44° C | 89% | 1007.9 hPa | 0 mm | 0 m/s | 161 W/m² | - |
| 1777990199 | 8.89° C | 89% | 1008.1 hPa | 0 mm | 0 m/s | 158 W/m² | - |
| 1777989896 | 8.33° C | 90% | 1008 hPa | 0 mm | 0 m/s | 148 W/m² | - |
| 1777989592 | 8.89° C | 90% | 1008.1 hPa | 0 mm | 0 m/s | 127 W/m² | - |
| 1777989289 | 8.33° C | 90% | 1008.3 hPa | 0 mm | 0 m/s | 79 W/m² | - |
| 1777988985 | 8.33° C | 90% | 1008.2 hPa | 0 mm | 0 m/s | 98 W/m² | - |
| 1777988682 | 8.33° C | 90% | 1008.3 hPa | 0 mm | 0 m/s | 105 W/m² | - |
| 1777988379 | 7.78° C | 91% | 1008.5 hPa | 1.27 mm | 0 m/s | 95 W/m² | - |
| 1777988076 | 7.22° C | 90% | 1008.8 hPa | 1.27 mm | 0 m/s | 80 W/m² | - |
| 1777987771 | 7.78° C | 90% | 1008.9 hPa | 3.56 mm | 0 m/s | 64 W/m² | - |
| 1777987469 | 7.78° C | 90% | 1008.8 hPa | 4.83 mm | 0 m/s | 43 W/m² | - |
| 1777987166 | 7.78° C | 89% | 1008.3 hPa | 3.05 mm | 0 m/s | 17 W/m² | - |
| 1777986863 | 7.78° C | 89% | 1008.2 hPa | 3.05 mm | 0 m/s | 15 W/m² | - |
| 1777986561 | 7.22° C | 88% | 1007.6 hPa | 1.27 mm | 0 m/s | 16 W/m² | - |
| 1777986259 | 7.22° C | 87% | 1007.4 hPa | 1.27 mm | 0 m/s | 20 W/m² | - |
| 1777985956 | 7.22° C | 87% | 1007.4 hPa | 1.78 mm | 0 m/s | 17 W/m² | - |
| 1777985653 | 7.78° C | 87% | 1007.4 hPa | 3.05 mm | 0 m/s | 20 W/m² | - |
| 1777985349 | 7.78° C | 87% | 1007.6 hPa | 3.05 mm | 0 m/s | 20 W/m² | - |
| 1777985047 | 7.78° C | 86% | 1007.7 hPa | 3.05 mm | 0 m/s | 16 W/m² | - |
* Rain latest hour (hover to see other rain measurements)
** Current wind speed in m/s (hover to see current wind gust speed)